Flag for Germany Weather past 2 weeks in Osterholz-Scharmbeck, Lower Saxony, Germany

Now
46 °F

Scattered clouds.


Feels Like: 39 °F
Forecast: 38 / 47 °F
Wind: 15 mph from West

Location: Bremen

Current Time: Mar 30, 2015 at 6:55:01 PM

Latest Report: Mar 30, 2015 at 6:00 PM


Visibility: 25 mi

Pressure: 29.65 "Hg

Humidity: 62%

Dew point: 33 °F

Location of Osterholz-ScharmbeckLocation

Historic Weather in Osterholz-Scharmbeck — Graph

°F

Osterholz-Scharmbeck temperature yesterday

Maximum temperature yesterday: 51 °F (at 4:00 AM)
Minimum temperature yesterday: 47 °F (at 6:00 PM)
Average temperature yesterday: 49 °F

Past Weeks' High & Low Weather Summary

 TemperatureHumidityPressure
High60 °F (Mar 18, 4:00 PM)100% (Mar 19, 6:00 AM)30.43 "Hg (Mar 19, 6:00 AM)
Low28 °F (Mar 23, 7:00 AM)31% (Mar 19, 4:00 PM)29.00 "Hg (Mar 29, 9:00 PM)
Average44 °F78%30.01 "Hg
* Reported Mar 15 3:00 PM — Mar 30 4:00 PM, Osterholz-Scharmbeck, Weather by CustomWeather, © 2015

Note: Actual official high and low records may vary slightly from our data, if they occured in-between our weather recording intervals... More about our weather records

Advertising

Osterholz-Scharmbeck weather history for previous 24 hours

 ConditionsComfort  
Time TempWeatherWind HumidityBarometerVisibility
4:00 PM
Mon, Mar 30
46 °FPartly sunny.13 mph66%29.57 "Hg25 mi
3:00 PM43 °FPartly sunny.12 mph74%29.54 "Hg19 mi
2:00 PM48 °FScattered clouds.16 mph62%29.50 "Hg25 mi
1:00 PM44 °FScattered clouds.14 mph73%29.44 "Hg25 mi
12:00 PM44 °FPartly sunny.16 mph77%29.41 "Hg19 mi
10:00 AM41 °FRain showers. Low clouds.15 mph87%29.32 "Hg3 mi
9:00 AM40 °FSprinkles. Low clouds.14 mph84%29.32 "Hg6 mi
8:00 AM39 °FPartly sunny.13 mph86%29.29 "Hg31 mi
7:00 AM40 °FPassing clouds.10 mph81%29.26 "Hg16 mi
6:00 AM41 °FLight rain. Overcast.12 mph89%29.23 "Hg14 mi
4:00 AM42 °FOvercast.10 mph88%29.23 "Hg19 mi
3:00 AM43 °FOvercast.10 mph80%29.23 "Hg19 mi
2:00 AM43 °FOvercast.13 mph80%29.21 "Hg16 mi
1:00 AM43 °FSprinkles. Overcast.12 mph89%29.18 "Hg16 mi
12:00 AM42 °FSprinkles. Overcast.13 mph89%29.15 "Hg16 mi
10:00 PM
Sun, Mar 29
48 °FSprinkles. Overcast.14 mph87%29.00 "Hg4 mi
9:00 PM51 °FLight rain. Overcast.14 mph85%29.00 "Hg16 mi
8:00 PM50 °FLight rain. Overcast.6 mph94%29.03 "Hg5 mi
7:00 PM49 °FRain. Overcast.7 mph94%29.09 "Hg5 mi
6:00 PM47 °FRain. Overcast.6 mph95%29.18 "Hg8 mi
Weather by CustomWeather, © 2015

See weather overviewHow to use our weather pages